weather.gov     
National Weather Service

Regional Weather Roundup
NWS Homepage
This page is being discontinued on March 12, 2014.
The same data is available at this site. Please update your bookmarks.
Thank you, and we apologize for the inconvenience.
Please send an email to SR-SRH.Webmaster@noaa.gov with any concerns.


Current Version
Previous Version:    01  02  03  04  05  06  07  08  09  10  11  12  13  14  15  16  17  18  19  20  21  22  23  24  25  26  27  28  29  30  
   31  32  33  34  35  36  37  38  39  40  41  42  43  44  45  46  47  48  49  50  51  52  53  54  55  56  57  58  59  60  
[Printable]
957
ASUS44 KFWD 231915
RWRTX
NORTH TEXAS HOURLY WEATHER ROUNDUP
NATIONAL WEATHER SERVICE FORT WORTH TX
200 PM CDT WED APR 23 2014

NOTE: "FAIR" INDICATES FEW OR NO CLOUDS BELOW 12,000 FEET WITH NO
SIGNIFICANT WEATHER AND/OR OBSTRUCTIONS TO VISIBILITY.

TXZ118-119-232000-
DALLAS/FORT WORTH METROPLEX

CITY           SKY/WX    TMP DP  RH WIND       PRES   REMARKS
DFW AIRPORT    MOSUNNY   84  61  45 SE16G29   29.84F
DALLAS LOVE    MOSUNNY   85  60  42 S15       29.85F
FTW MEACHAM    SUNNY     84  60  44 SE16G28   29.82F
DAL-EXECUTIVE  MOSUNNY   84  61  45 S16G23    29.85F
FTW-ALLIANCE   MOSUNNY   82  60  47 S14G21    29.83F
FTW-NAS-JRB    MOSUNNY   87  54  32 SE18G26   29.87F
FTW-SPINKS     SUNNY     86  57  37 S16G23    29.86F
ARLINGTON      SUNNY     85  57  38 SE16G24   29.84F
GRAND PRAIRIE  SUNNY     84  55  37 SE13G22   29.87F
MESQUITE       MOSUNNY   64  61  88 SE16      29.87F
LANCASTER      MOSUNNY   82  61  48 S12G18    29.88F
$$

TXZ091>094-102>105-117-120-121-131>134-232000-
NORTH CENTRAL TEXAS

CITY           SKY/WX    TMP DP  RH WIND       PRES   REMARKS
SHRMAN/DENISON SUNNY     81  59  46 S15G23    29.87F
GAINESVILLE    SUNNY     80  62  52 SE17      29.86F
BOWIE          SUNNY     83  55  38 SE15G23   29.82F
BRIDGEPORT     SUNNY     82  56  41 S10G16    29.84F
DECATUR        SUNNY     81  56  42 SE13G22   29.84F
DENTON         SUNNY     82  59  45 S16G23    29.84F
MCKINNEY       MOSUNNY   82  61  48 S18G24    29.86F
GREENVILLE     PTSUNNY   82  57  42 S9        29.89F
ROCKWALL       MOSUNNY   84  62  47 SE15G21   29.87F
TERRELL        MOSUNNY   82  63  52 S15G21    29.89F
WAXAHACHIE     MOSUNNY   82  59  45 SE12G21   29.87F
CLEBURNE       SUNNY     84  59  42 S15G22    29.87F
GRANBURY       SUNNY     88  57  34 SE13      29.83F
$$

TXZ083>090-098>101-113>116-127>130-139>142-154-155-232000-
WESTERN NORTH TEXAS

CITY           SKY/WX    TMP DP  RH WIND       PRES   REMARKS
WICHITA FALLS  MOSUNNY   85  60  42 S17G28    29.77F
WF-KICKAPOO    SUNNY     85  58  41 S12G22    29.79F
VERNON         PTSUNNY   87  58  36 S17       29.76F
ABILENE        PTSUNNY   86  58  38 S20G30    29.79F
ABILENE-DYESS  CLOUDY    84  59  41 SE21G30   29.77F
BRECKENRIDGE   MOSUNNY   89  55  31 S16G29    29.80F HAZE
GRAHAM         SUNNY     87  57  35 SE17G24   29.78F
MINERAL WELLS  SUNNY     87  57  35 S14       29.81F
STEPHENVILLE   MOSUNNY   84  55  36 S17G23    29.87F
COMANCHE       SUNNY     86  54  33 S14G28    29.83F
BROWNWOOD      MOSUNNY   86  57  37 S16G24    29.83F
COLEMAN        PTSUNNY   88  55  33 S12G20    29.82F
BRADY          MOSUNNY   88  59  37 SE13G25   29.83F
$$

TXZ143>147-156>162-174-175-232000-
CENTRAL TEXAS

CITY           SKY/WX    TMP DP  RH WIND       PRES   REMARKS
WACO           SUNNY     84  60  44 S17       29.86F
WACO-TSTC      MOSUNNY   84  63  48 SE12G18   29.87F
WACO-MCGREGOR  MOSUNNY   86  57  37 S16G23    29.87F
HILLSBORO      MOSUNNY   84  59  43 SE16G24   29.87F
CORSICANA      SUNNY     84  61  45 SE17      29.89F
MEXIA          MOSUNNY   81  65  57 SE9G16    29.88F
HEARNE         PTSUNNY   83  62  48 SE13G18   29.89F
CAMERON        MOSUNNY   86  60  42 S14G21    29.87F
TEMPLE         SUNNY     84  57  39 SE23      29.88F
KILLEEN        MOSUNNY   84  61  45 SE23G29   29.85F
KILLEEN-SKYLRK MOSUNNY  N/A N/A N/A SE16G22   29.85F
FORT HOOD      MOSUNNY   87  60  40 SE14G23   29.85F
GATESVILLE     SUNNY     84  61  45 SE16      29.87F
HAMILTON       MOSUNNY   86  56  36 SE13G26   29.86F
LAMPASAS       MOSUNNY   85  60  42 S9G17     29.85F
$$

TXZ095>097-106>112-122>126-135>138-148>153-164>167-232000-
EAST TEXAS

CITY           SKY/WX    TMP DP  RH WIND       PRES   REMARKS
PARIS          SUNNY     81  61  50 S12G18    29.89F
SULPHUR SPRNGS SUNNY     82  58  43 S10       29.91F
CLARKSVILLE    SUNNY     82  56  41 CALM      29.89F
MOUNT PLEASANT SUNNY     81  58  45 SE14      29.91F
GILMER         SUNNY     82  57  42 S7G16     29.92F
MINEOLA        MOSUNNY   82  57  42 S9        29.90F
TYLER          MOSUNNY   83  59  44 S15G24    29.90F
LONGVIEW       MOSUNNY   81  57  43 SE12      29.91F
MARSHALL       MOSUNNY   80  54  39 S6        29.94F
ATHENS         PTSUNNY   81  61  50 SE10G16   29.89F
PALESTINE      MOSUNNY   82  58  43 SE7       29.92F
JACKSONVILLE   MOSUNNY   80  54  40 SE9       29.94F
HENDERSON      SUNNY     83  50  31 S7G18     29.92F
NACOGDOCHES    MOSUNNY   82  59  44 SE10      29.92F
LUFKIN         MOSUNNY   87  59  38 S9G17     29.91F
$$

SUPPLEMENTAL OBSERVATIONS (CENTRAL)

CITY           SKY/WX    TMP DP  RH WIND       PRES   REMARKS
LAKE TEXOMA      N/A     79  54  41 S12         N/A
CADDO GRASSLND   N/A     82  59  44 S13         N/A
PAT MAYSE LAKE   N/A     79  57  47 SE13        N/A
GREENVILLE       N/A     82  61  47 S12         N/A
CEDAR HILL       N/A     84  57  39 S14G22      N/A
ATHENS           N/A     84  59  42 S13         N/A
LAKE LIMESTONE   N/A     84  63  48 S10         N/A
MCGREGOR         N/A     88  57  35 S16G26      N/A
$$

SUPPLEMENTAL OBSERVATIONS (WEST)

CITY           SKY/WX    TMP DP  RH WIND       PRES   REMARKS
MILLERS CREEK    N/A     90  57  33 S18G29      N/A
LBJ GRASSLAND    N/A     82  57  42 SE14        N/A
COMANCHE         N/A     88  57  35 S16G25      N/A
HAMBY            N/A     88  57  35 S20G29      N/A
$$

SUPPLEMENTAL OBSERVATIONS (EAST)

CITY           SKY/WX    TMP DP  RH WIND       PRES   REMARKS
CLARKSVILLE      N/A     82  59  44 S10         N/A
TEXARKANA        N/A     82  57  42 SE6         N/A
LINDEN           N/A     82  57  42 S5G13       N/A
CADDO LAKE       N/A     84  57  39 S6          N/A
GILMER           N/A     84  57  39 S8G16       N/A
HENDERSON        N/A     82  54  36 S12         N/A
N SABINE NF      N/A     86  57  37 MISG        N/A
S SABINE NF      N/A     84  57  39 E7          N/A
$$

SUPPLEMENTAL OBSERVATIONS ARE A COLLECTION OF AUTOMATED INSTRUMENTS
THAT ARE MAINTAINED BY A VARIETY OF FEDERAL AND STATE AGENCIES.
CERTAIN ELEMENTS...SUCH AS HUMIDITY VALUES AND SUSTAINED WIND
SPEEDS...MAY BE APPROXIMATED.





U.S. Dept. of Commerce
NOAA National Weather Service
1325 East West Highway
Silver Spring, MD 20910
E-mail: w-nws.webmaster@noaa.gov
Page last modified: May 16, 2007
NATIONAL WEATHER SERVICE: for Safety, for Work, for Fun - FOR LIFE